Theta_e
294 294 293 293 293 293 292 292 292 291 291 291 291 291 291 292 292 293 293 294 294 294 295 296 297 297 298 298 299 299 299 299 299 299 299 299 299 299 299 300 300 300
292 292 291 291 291 290 290 290 289 289 289 289 289 289 289 289 289 289 290 290 290 291 291 292 293 294 295 295 296 297 298 298 299 298 298 298 298 298 298 298 299 299
291 291 291 290 290 290 289 289 289 289 289 289 289 289 288 288 288 288 288 288 288 288 289 289 289 289 290 291 292 293 294 296 297 297 298 298 298 298 298 298 298 298
290 290 290 290 289 289 289 289 289 289 289 288 288 288 288 288 288 288 288 288 288 288 288 288 288 287 288 288 289 289 290 291 292 294 295 296 297 297 297 297 297 297
289 289 289 289 289 289 289 289 289 289 289 288 288 288 288 288 288 288 288 288 288 288 288 288 288 287 287 287 287 287 288 288 289 290 291 292 294 295 296 296 296 296
289 289 289 288 289 288 289 289 289 289 289 289 289 288 288 288 288 288 288 288 288 288 288 288 288 288 288 287 287 287 286 287 287 287 288 289 290 291 292 293 294 295
288 288 288 288 288 288 288 288 288 288 288 288 288 288 288 289 289 289 289 288 288 288 288 288 288 288 288 287 287 287 287 287 286 286 286 287 287 288 288 289 290 292
288 288 288 288 288 288 288 288 288 288 288 288 288 288 288 288 288 288 288 288 288 289 289 288 288 288 288 288 288 288 287 287 287 287 286 286 286 286 287 287 288 288
288 288 288 288 288 288 288 288 288 288 288 288 288 287 287 287 287 287 287 287 288 288 288 288 288 288 288 288 288 288 288 288 287 287 287 287 287 286 286 286 286 287
288 288 288 288 288 288 288 288 287 287 287 287 287 287 287 287 287 287 286 287 287 287 287 287 287 287 288 288 288 288 288 288 288 288 287 287 287 287 287 287 286 286
288 288 288 288 288 288 287 287 287 287 287 286 286 286 286 286 286 286 286 286 286 286 286 286 286 286 286 287 287 287 287 287 287 288 287 287 287 287 287 287 287 287
288 288 288 288 287 287 287 287 287 286 286 286 286 286 286 286 286 286 285 285 285 285 285 285 285 285 286 286 286 286 286 286 286 287 287 287 287 287 287 287 287 287
288 288 288 287 287 287 287 286 286 286 286 286 285 285 285 285 285 285 285 285 285 285 285 285 285 285 285 285 285 285 284 285 285 285 286 286 286 286 286 286 286 287
288 288 288 287 287 286 286 286 286 285 285 285 285 285 285 284 284 284 284 284 284 284 284 284 284 284 284 284 283 283 283 283 283 284 284 284 285 285 286 286 286 286
288 288 287 287 286 286 285 285 285 284 284 284 284 284 284 284 284 284 284 284 284 284 284 284 284 284 284 283 282 282 281 281 281 282 282 283 283 284 285 285 285 286
287 287 287 286 285 285 284 284 284 284 284 284 284 284 284 284 284 284 284 284 284 284 284 284 284 284 284 283 281 280 280 280 280 280 280 280 281 282 283 284 284 285
287 287 286 285 284 284 284 284 283 283 283 283 284 284 284 284 284 284 284 283 283 283 283 283 283 283 282 281 280 279 279 279 279 279 279 279 279 280 281 282 283 283
286 285 284 284 284 283 283 283 283 283 283 283 284 284 284 284 283 283 283 283 282 282 282 282 282 281 280 279 279 279 278 277 277 277 278 278 279 279 279 279 280 281
284 284 283 283 283 283 283 283 283 283 283 283 283 283 283 283 283 282 282 282 281 281 281 281 280 279 278 277 277 277 276 275 276 276 277 277 277 278 278 278 278 278
283 283 283 283 282 282 283 283 283 283 283 283 283 283 283 282 282 282 281 280 279 279 279 279 278 276 275 275 275 274 274 274 274 275 275 276 276 276 277 277 277 277
283 283 282 282 282 283 283 283 282 282 282 282 282 282 282 282 281 281 280 279 278 276 276 276 275 274 274 274 273 273 273 272 272 273 274 274 275 276 276 276 276 276
282 282 282 282 282 283 282 282 282 282 282 281 281 281 281 281 280 279 278 277 276 275 274 274 274 273 272 272 272 272 272 271 271 272 272 273 274 274 274 274 275 275
282 282 282 282 282 282 282 281 281 281 281 280 281 281 280 279 278 277 276 275 274 274 273 273 273 272 272 272 271 271 271 271 271 271 271 272 273 273 273 273 273 273
282 282 282 282 282 281 281 281 281 281 280 280 280 280 279 278 276 275 274 273 273 273 272 272 272 272 271 271 271 271 271 270 270 270 270 270 271 271 271 271 271 271
281 281 281 281 281 281 281 281 280 280 280 279 279 278 277 276 275 274 274 273 273 272 272 272 272 272 271 271 271 271 270 269 268 268 268 269 269 269 269 269 269 270
281 281 281 281 280 280 280 280 280 279 279 279 278 277 276 275 274 273 273 273 273 272 272 272 272 271 271 271 270 270 270 269 268 268 268 268 268 268 268 268 269 270
Wind_Speed
13 13 14 14 14 15 15 15 16 17 17 17 17 17 17 16 16 16 16 16 16 16 16 16 16 16 16 16 17 16 16 17 18 20 23 25 27 28 30 31 32 34
12 12 13 13 14 15 15 16 17 17 18 18 18 19 19 19 19 19 18 18 18 18 18 18 18 18 19 19 19 19 18 18 17 18 20 22 24 27 28 30 31 32
9 10 12 13 14 14 15 16 16 17 17 18 18 19 19 20 21 21 21 21 21 21 21 21 20 20 20 20 21 21 21 21 20 19 20 21 21 24 26 28 30 31
6 7 8 9 11 12 13 15 15 16 17 18 19 20 20 21 22 22 22 23 23 23 23 23 24 24 23 22 22 22 22 22 22 22 23 22 22 22 24 25 28 30
8 8 9 9 10 11 12 13 14 15 16 17 18 20 21 22 23 24 24 25 25 25 26 26 26 26 26 26 25 25 24 23 23 23 24 24 23 23 24 24 26 27
12 12 13 14 14 15 15 16 16 17 17 17 18 20 21 22 23 24 25 26 26 27 28 28 28 28 29 29 29 28 28 27 26 25 25 25 25 25 25 25 26 27
14 15 16 17 18 19 20 20 21 22 22 22 22 22 23 23 24 25 26 28 28 29 29 30 30 30 31 32 32 32 31 31 30 28 28 28 27 26 26 26 27 28
16 17 18 20 21 22 23 23 23 24 25 26 26 26 27 27 27 27 28 29 30 31 32 32 33 33 33 33 34 34 35 34 34 34 33 32 31 29 28 27 28 29
18 19 20 21 22 23 23 23 24 25 26 27 28 29 30 30 30 31 31 31 31 31 32 33 34 35 36 36 37 37 37 37 36 37 37 38 37 35 32 30 30 30
19 21 22 23 24 24 24 25 25 26 27 28 29 29 30 31 31 32 33 34 35 34 34 34 34 35 35 37 38 39 40 40 39 39 39 39 40 40 39 37 34 33
22 24 25 25 26 26 27 28 29 30 31 31 32 32 33 33 34 34 36 37 38 39 39 39 39 38 38 38 38 38 40 41 42 42 42 41 41 41 42 42 41 40
26 27 28 28 28 29 29 30 30 31 32 33 35 37 38 39 39 40 41 42 43 43 44 44 44 44 44 43 42 41 41 41 42 43 44 44 44 43 42 42 43 44
28 30 30 30 30 30 30 31 31 32 34 35 37 39 40 42 43 44 45 46 47 47 48 48 49 49 49 49 48 47 45 45 44 44 45 45 46 47 46 45 44 44
30 32 32 32 32 31 31 32 33 35 37 38 39 41 42 43 44 45 46 47 48 49 49 50 51 51 52 51 51 49 48 47 47 47 47 47 47 47 48 48 48 48
32 34 34 34 33 33 33 35 37 39 40 41 42 43 44 45 45 46 47 48 48 49 49 50 51 51 51 51 50 49 47 46 46 46 47 48 49 49 49 49 50 51
33 34 34 34 34 35 37 39 40 41 42 43 44 45 45 46 47 47 48 49 49 50 50 50 51 51 51 50 49 46 44 43 44 45 45 46 48 50 52 52 51 51
33 33 33 33 35 37 39 40 42 42 43 44 45 45 46 46 47 48 48 49 50 51 52 52 52 52 51 51 50 47 44 42 43 45 46 47 48 49 51 52 52 52
31 32 33 35 37 38 40 40 42 42 43 44 45 45 46 47 48 49 50 51 51 52 54 54 54 54 52 51 51 50 47 43 43 46 48 49 50 50 51 52 52 53
31 33 35 36 37 38 39 40 41 41 42 43 44 45 47 48 50 51 52 53 53 54 55 56 56 54 52 51 51 50 48 45 44 47 50 51 51 52 52 53 53 53
32 34 36 37 37 38 39 39 40 41 42 43 45 46 48 50 51 53 54 54 53 53 54 55 54 51 49 49 48 47 46 44 43 46 48 50 51 52 52 53 54 54
33 34 35 37 37 38 39 39 40 41 42 43 45 46 48 50 52 52 52 52 51 50 51 52 50 46 45 45 43 43 42 40 41 43 46 48 50 51 51 52 53 53
33 35 36 37 37 38 38 39 40 41 42 43 45 47 49 50 50 50 49 49 48 46 47 48 46 43 41 40 39 38 38 38 39 42 44 46 48 49 50 50 51 51
33 35 35 36 37 37 38 39 40 41 42 44 46 48 49 49 48 47 46 45 45 44 43 45 44 41 38 37 36 35 34 35 37 39 41 43 45 46 46 47 48 46
33 34 34 35 36 37 38 39 40 42 42 44 46 48 48 47 46 46 44 42 41 41 40 41 41 38 35 35 33 31 30 30 32 35 38 40 42 42 42 42 43 40
32 32 33 34 35 37 38 39 40 41 42 43 44 45 45 45 43 43 42 39 38 37 37 37 38 36 33 32 30 27 25 27 30 34 36 38 39 41 41 41 41 40
31 32 33 34 35 37 38 39 39 40 42 42 42 42 42 42 40 39 39 38 36 35 35 35 35 34 31 29 27 25 23 25 29 33 36 38 39 41 43 42 41 40
Wind_Direction
26 24 21 20 19 18 16 13 11 7 5 5 3 2 0 357 353 349 346 345 342 339 337 334 330 326 323 320 316 312 305 297 290 281 272 267 264 262 260 259 257 257
20 19 17 15 14 13 11 9 6 3 1 360 358 356 354 353 352 349 346 344 340 337 335 332 330 327 324 322 320 318 315 310 305 297 287 279 273 267 265 263 260 259
13 11 7 4 5 4 4 3 358 355 354 352 350 348 346 346 345 344 343 341 340 339 337 335 332 329 325 322 320 319 317 314 312 307 300 295 289 280 274 269 265 262
20 10 1 355 353 352 351 350 346 345 345 344 342 340 339 338 336 335 334 333 333 333 332 332 332 331 329 325 322 319 316 314 313 309 305 304 301 296 289 282 276 271
11 4 359 351 346 344 340 337 335 334 334 334 334 333 332 331 330 329 327 326 325 324 324 323 323 324 325 324 324 322 319 316 313 310 306 304 303 301 299 296 290 285
355 351 348 345 341 339 336 334 332 330 327 325 324 324 322 321 320 320 319 318 318 318 317 316 316 316 317 317 317 318 319 318 316 312 308 305 303 301 301 300 298 295
348 345 344 341 339 337 335 334 332 330 328 324 322 321 318 315 314 313 312 311 311 310 311 310 310 310 310 310 310 310 311 312 313 312 310 308 306 302 300 299 298 296
344 342 341 338 336 334 332 331 330 329 327 325 323 322 320 318 316 313 310 308 306 306 305 305 305 305 305 305 305 305 305 305 306 307 307 307 307 305 304 301 297 295
337 334 333 331 330 329 328 327 326 326 325 324 322 321 320 320 318 317 314 311 308 305 303 302 301 301 301 301 301 301 301 301 301 302 302 303 303 304 304 303 299 296
331 329 327 327 328 328 327 327 326 325 325 323 321 320 319 318 317 316 315 314 312 310 307 304 302 300 299 298 298 299 299 299 299 298 298 298 298 299 299 300 299 297
328 327 327 327 327 327 327 327 327 326 325 323 322 320 318 317 316 314 313 311 310 309 308 306 305 303 300 298 297 297 297 297 297 297 296 295 294 293 294 295 295 295
325 326 326 325 325 325 325 325 324 323 322 321 320 319 317 316 315 313 312 310 308 307 306 305 304 302 300 299 296 295 293 292 292 292 292 292 292 291 290 290 290 290
321 322 322 322 321 322 322 321 321 319 318 316 315 314 313 312 311 310 309 308 306 305 304 303 302 301 300 299 298 296 295 292 289 287 286 285 286 287 287 287 286 286
315 317 318 318 318 318 318 317 316 314 313 312 310 310 309 308 307 306 305 304 303 303 302 301 301 300 299 299 300 300 300 298 295 291 288 285 282 280 280 282 283 283
310 313 313 313 314 314 314 313 312 311 310 309 309 308 308 307 306 305 304 303 302 301 300 299 298 298 298 299 300 302 302 302 300 297 294 291 287 283 279 276 277 278
306 308 308 309 310 310 310 310 309 309 309 309 309 309 309 308 308 307 306 305 304 303 301 300 299 298 297 297 298 300 300 299 298 296 295 293 291 288 285 280 277 275
302 303 304 306 307 308 308 308 309 309 310 310 310 310 310 310 309 308 308 307 306 304 303 301 299 298 297 295 295 294 294 295 294 293 292 291 290 289 288 286 283 279
299 301 303 305 306 307 308 308 309 310 310 311 311 311 311 311 310 310 309 308 306 303 302 300 298 296 295 293 292 291 291 292 292 290 289 288 287 287 286 286 285 284
299 302 304 306 307 308 309 309 310 311 312 312 313 313 313 312 312 311 309 307 305 303 301 298 297 296 295 293 292 291 291 291 290 287 286 285 284 284 284 284 284 283
302 305 307 308 309 310 310 311 312 313 314 315 315 314 314 313 313 311 309 307 305 303 301 299 298 298 297 296 294 292 291 290 288 286 284 283 282 281 281 280 280 281
307 309 310 311 311 312 312 313 314 315 316 316 315 315 315 314 312 310 309 307 306 305 303 302 302 302 301 299 297 295 293 290 288 285 283 282 281 280 280 280 280 279
311 312 312 312 313 313 314 315 316 316 317 317 317 316 315 314 312 311 310 309 308 308 306 304 304 305 304 302 299 297 294 291 288 286 284 283 282 282 281 281 280 280
313 313 313 314 314 315 316 316 317 318 319 319 318 317 316 315 314 313 312 311 310 310 309 307 306 307 306 304 301 298 296 294 292 290 288 287 285 285 285 284 284 285
313 314 314 314 315 316 317 318 319 320 321 320 319 317 317 316 315 314 313 312 312 311 311 309 308 309 309 306 303 301 298 296 295 293 291 290 289 289 289 289 288 288
314 314 315 315 316 317 318 320 321 321 321 320 319 318 317 315 314 314 313 313 313 313 313 311 311 311 311 308 306 304 301 299 298 295 294 293 293 292 293 293 293 294
314 315 316 317 318 319 320 320 321 322 321 320 319 318 315 314 314 315 314 315 317 316 316 315 315 314 315 313 311 309 307 303 299 296 295 295 295 295 297 299 299 300